Time,TemperatureF,DewpointF,PressureIn,WindDirection,WindDirectionDegrees,WindSpeedMPH,WindSpeedGustMPH,Humidity,HourlyPrecipIn,Conditions,Clouds,dailyrainin,SolarRadiationWatts/m^2,SoftwareType,DateUTC
2013-02-19 00:02:00,46.0,22.0,-100.00,SSE,156,11.0,19.0,39,0.00,,,0.00,0.000000,,2013-02-19 05:02:00,
2013-02-19 00:33:00,46.0,22.0,-100.00,SSE,152,11.0,18.0,39,0.00,,,0.00,0.000000,,2013-02-19 05:33:00,
2013-02-19 00:43:00,46.0,22.0,-100.00,SSE,152,11.0,18.0,39,0.00,,,0.00,0.000000,,2013-02-19 05:43:00,
2013-02-19 00:52:00,46.0,22.0,-100.00,SSE,152,11.0,18.0,39,0.00,,,0.00,0.000000,,2013-02-19 05:52:00,
2013-02-19 01:03:00,46.0,22.0,-100.00,SSE,152,11.0,18.0,39,0.00,,,0.00,0.000000,,2013-02-19 06:03:00,
2013-02-19 01:33:00,46.0,20.0,-100.00,SSE,158,11.0,21.0,35,0.00,,,-99.99,0.000000,,2013-02-19 06:33:00,
2013-02-19 01:42:00,46.0,20.0,-100.00,SSE,158,11.0,21.0,35,0.00,,,-99.99,0.000000,,2013-02-19 06:42:00,
2013-02-19 01:53:00,46.0,20.0,-100.00,SSE,158,11.0,21.0,35,0.00,,,-99.99,0.000000,,2013-02-19 06:53:00,
2013-02-19 02:02:00,46.0,20.0,-100.00,SSE,158,11.0,21.0,35,0.00,,,-99.99,0.000000,,2013-02-19 07:02:00,
2013-02-19 02:32:00,47.0,19.0,-100.00,SSE,155,10.0,22.0,33,0.00,,,0.00,0.000000,,2013-02-19 07:32:00,
2013-02-19 02:42:00,47.0,19.0,-100.00,SSE,155,10.0,22.0,33,0.00,,,0.00,0.000000,,2013-02-19 07:42:00,
2013-02-19 02:52:00,47.0,19.0,-100.00,SSE,155,10.0,22.0,33,0.00,,,0.00,0.000000,,2013-02-19 07:52:00,
2013-02-19 03:02:00,47.0,19.0,-100.00,SSE,155,10.0,22.0,33,0.00,,,0.00,0.000000,,2013-02-19 08:02:00,
2013-02-19 03:32:00,42.0,28.0,-100.00,SSE,153,7.0,33.0,57,0.00,,,0.00,0.000000,,2013-02-19 08:32:00,
2013-02-19 03:42:00,42.0,28.0,-100.00,SSE,153,7.0,33.0,57,0.00,,,0.00,0.000000,,2013-02-19 08:42:00,
2013-02-19 03:52:00,42.0,28.0,-100.00,SSE,153,7.0,33.0,57,0.00,,,0.00,0.000000,,2013-02-19 08:52:00,
2013-02-19 04:02:00,42.0,28.0,-100.00,SSE,153,7.0,33.0,57,0.00,,,0.00,0.000000,,2013-02-19 09:02:00,
2013-02-19 04:32:00,39.0,31.0,-100.00,ESE,118,4.0,11.0,73,0.02,,,0.02,0.000000,,2013-02-19 09:32:00,
2013-02-19 04:42:00,39.0,31.0,-100.00,ESE,118,4.0,11.0,73,0.02,,,0.02,0.000000,,2013-02-19 09:42:00,
2013-02-19 04:53:00,39.0,31.0,-100.00,ESE,118,4.0,11.0,73,0.02,,,0.02,0.000000,,2013-02-19 09:53:00,
2013-02-19 05:02:00,39.0,31.0,-100.00,ESE,118,4.0,11.0,73,0.02,,,0.02,0.000000,,2013-02-19 10:02:00,
2013-02-19 05:32:00,37.0,34.0,-100.00,SE,125,5.0,10.0,90,0.11,,,0.13,0.000000,,2013-02-19 10:32:00,
2013-02-19 05:42:00,37.0,34.0,-100.00,SE,125,5.0,10.0,90,0.11,,,0.13,0.000000,,2013-02-19 10:42:00,
2013-02-19 05:52:00,37.0,34.0,-100.00,SE,125,5.0,10.0,90,0.11,,,0.13,0.000000,,2013-02-19 10:52:00,
2013-02-19 06:01:00,37.0,34.0,-100.00,SE,125,5.0,10.0,90,0.11,,,0.13,0.000000,,2013-02-19 11:01:00,
2013-02-19 06:32:00,35.0,33.0,-100.00,SE,141,6.0,13.0,94,0.10,,,0.23,0.000000,,2013-02-19 11:32:00,
2013-02-19 06:42:00,35.0,33.0,-100.00,SE,141,6.0,13.0,94,0.10,,,0.23,0.000000,,2013-02-19 11:42:00,
2013-02-19 06:52:00,35.0,33.0,-100.00,SE,141,6.0,13.0,94,0.10,,,0.23,0.000000,,2013-02-19 11:52:00,
2013-02-19 07:02:00,35.0,33.0,-100.00,SE,141,6.0,13.0,94,0.10,,,0.23,0.000000,,2013-02-19 12:02:00,
2013-02-19 07:33:00,35.0,34.0,-100.00,ESE,102,3.0,9.0,96,0.03,,,0.26,0.000000,,2013-02-19 12:33:00,
2013-02-19 07:42:00,35.0,34.0,-100.00,ESE,102,3.0,9.0,96,0.03,,,0.26,0.000000,,2013-02-19 12:42:00,
2013-02-19 07:53:00,35.0,34.0,-100.00,ESE,102,3.0,9.0,96,0.03,,,0.26,0.000000,,2013-02-19 12:53:00,
2013-02-19 08:02:00,35.0,34.0,-100.00,ESE,102,3.0,9.0,96,0.03,,,0.26,0.000000,,2013-02-19 13:02:00,
2013-02-19 08:32:00,36.0,35.0,-100.00,East,96,2.0,6.0,96,0.01,,,0.27,6.000000,,2013-02-19 13:32:00,
2013-02-19 08:42:00,36.0,35.0,-100.00,East,96,2.0,6.0,96,0.01,,,0.27,6.000000,,2013-02-19 13:42:00,
2013-02-19 08:52:00,36.0,35.0,-100.00,East,96,2.0,6.0,96,0.01,,,0.27,6.000000,,2013-02-19 13:52:00,
2013-02-19 09:02:00,36.0,35.0,-100.00,East,96,2.0,6.0,96,0.01,,,0.27,6.000000,,2013-02-19 14:02:00,
2013-02-19 09:33:00,37.0,36.0,-100.00,SSE,159,2.0,6.0,96,0.01,,,-99.99,23.000000,,2013-02-19 14:33:00,
2013-02-19 09:42:00,37.0,36.0,-100.00,SSE,159,2.0,6.0,96,0.01,,,-99.99,23.000000,,2013-02-19 14:42:00,
2013-02-19 09:52:00,37.0,36.0,-100.00,SSE,159,2.0,6.0,96,0.01,,,-99.99,23.000000,,2013-02-19 14:52:00,
2013-02-19 10:02:00,37.0,36.0,-100.00,SSE,159,2.0,6.0,96,0.01,,,-99.99,23.000000,,2013-02-19 15:02:00,
2013-02-19 10:32:00,38.0,37.0,-100.00,SSE,159,2.0,4.0,96,0.01,,,0.29,46.000000,,2013-02-19 15:32:00,
2013-02-19 10:42:00,38.0,37.0,-100.00,SSE,159,2.0,4.0,96,0.01,,,0.29,46.000000,,2013-02-19 15:42:00,
2013-02-19 10:52:00,38.0,37.0,-100.00,SSE,159,2.0,4.0,96,0.01,,,0.29,46.000000,,2013-02-19 15:52:00,
2013-02-19 11:02:00,38.0,37.0,-100.00,SSE,159,2.0,4.0,96,0.01,,,0.29,46.000000,,2013-02-19 16:02:00,
2013-02-19 12:32:00,43.0,41.0,-100.00,NNW,345,3.0,6.0,93,-99.99,,,0.29,192.000000,,2013-02-19 17:32:00,
2013-02-19 12:42:00,43.0,41.0,-100.00,NNW,345,3.0,6.0,93,-99.99,,,0.29,192.000000,,2013-02-19 17:42:00,
2013-02-19 12:52:00,43.0,41.0,-100.00,NNW,345,3.0,6.0,93,-99.99,,,0.29,192.000000,,2013-02-19 17:52:00,
2013-02-19 13:02:00,43.0,41.0,-100.00,NNW,345,3.0,6.0,93,-99.99,,,0.29,192.000000,,2013-02-19 18:02:00,
2013-02-19 13:32:00,47.0,41.0,-100.00,NW,321,11.0,17.0,80,0.00,,,0.29,703.000000,,2013-02-19 18:32:00,
2013-02-19 13:42:00,47.0,41.0,-100.00,NW,321,11.0,17.0,80,0.00,,,0.29,703.000000,,2013-02-19 18:42:00,
2013-02-19 13:52:00,47.0,41.0,-100.00,NW,321,11.0,17.0,80,0.00,,,0.29,703.000000,,2013-02-19 18:52:00,
2013-02-19 14:01:00,47.0,41.0,-100.00,NW,321,11.0,17.0,80,0.00,,,0.29,703.000000,,2013-02-19 19:01:00,
2013-02-19 14:32:00,48.0,31.0,-100.00,NW,316,10.0,19.0,52,0.00,,,0.29,730.000000,,2013-02-19 19:32:00,
2013-02-19 14:42:00,48.0,31.0,-100.00,NW,316,10.0,19.0,52,0.00,,,0.29,730.000000,,2013-02-19 19:42:00,
2013-02-19 14:52:00,48.0,31.0,-100.00,NW,316,10.0,19.0,52,0.00,,,0.29,730.000000,,2013-02-19 19:52:00,
2013-02-19 15:02:00,48.0,31.0,-100.00,NW,316,10.0,19.0,52,0.00,,,0.29,730.000000,,2013-02-19 20:02:00,
2013-02-19 15:32:00,49.0,31.0,-100.00,NW,320,13.0,21.0,50,0.00,,,-99.99,424.000000,,2013-02-19 20:32:00,
2013-02-19 15:42:00,49.0,31.0,-100.00,NW,320,13.0,21.0,50,0.00,,,-99.99,424.000000,,2013-02-19 20:42:00,
2013-02-19 15:52:00,49.0,31.0,-100.00,NW,320,13.0,21.0,50,0.00,,,-99.99,424.000000,,2013-02-19 20:52:00,
2013-02-19 16:02:00,49.0,31.0,-100.00,NW,320,13.0,21.0,50,0.00,,,-99.99,424.000000,,2013-02-19 21:02:00,
2013-02-19 16:32:00,50.0,22.0,-100.00,NW,309,14.0,25.0,33,0.00,,,0.29,595.000000,,2013-02-19 21:32:00,
2013-02-19 16:42:00,50.0,22.0,-100.00,NW,309,14.0,25.0,33,0.00,,,0.29,595.000000,,2013-02-19 21:42:00,
2013-02-19 16:52:00,50.0,22.0,-100.00,NW,309,14.0,25.0,33,0.00,,,0.29,595.000000,,2013-02-19 21:52:00,
2013-02-19 17:02:00,50.0,22.0,-100.00,NW,309,14.0,25.0,33,0.00,,,0.29,595.000000,,2013-02-19 22:02:00,
2013-02-19 17:32:00,49.0,10.0,-100.00,WNW,293,14.0,31.0,20,0.00,,,-99.99,387.000000,,2013-02-19 22:32:00,
2013-02-19 18:32:00,46.0,12.0,-100.00,NW,312,8.0,19.0,25,0.00,,,0.29,155.000000,,2013-02-19 23:32:00,
2013-02-19 18:42:00,46.0,12.0,-100.00,NW,312,8.0,19.0,25,0.00,,,0.29,155.000000,,2013-02-19 23:42:00,
2013-02-19 18:52:00,46.0,12.0,-100.00,NW,312,8.0,19.0,25,0.00,,,0.29,155.000000,,2013-02-19 23:52:00,
2013-02-19 19:02:00,46.0,12.0,-100.00,NW,312,8.0,19.0,25,0.00,,,0.29,155.000000,,2013-02-20 00:02:00,
2013-02-19 19:32:00,43.0,14.0,-100.00,NW,315,11.0,17.0,31,0.00,,,0.29,5.000000,,2013-02-20 00:32:00,
2013-02-19 19:42:00,43.0,14.0,-100.00,NW,315,11.0,17.0,31,0.00,,,0.29,5.000000,,2013-02-20 00:42:00,
2013-02-19 19:52:00,43.0,14.0,-100.00,NW,315,11.0,17.0,31,0.00,,,0.29,5.000000,,2013-02-20 00:52:00,
2013-02-19 20:02:00,43.0,14.0,-100.00,NW,315,11.0,17.0,31,0.00,,,0.29,5.000000,,2013-02-20 01:02:00,
2013-02-19 20:32:00,40.0,8.0,-100.00,NW,305,6.0,18.0,26,0.00,,,0.29,0.000000,,2013-02-20 01:32:00,
2013-02-19 20:42:00,40.0,8.0,-100.00,NW,305,6.0,18.0,26,0.00,,,0.29,0.000000,,2013-02-20 01:42:00,
2013-02-19 20:52:00,40.0,8.0,-100.00,NW,305,6.0,18.0,26,0.00,,,0.29,0.000000,,2013-02-20 01:52:00,
2013-02-19 21:02:00,40.0,8.0,-100.00,NW,305,6.0,18.0,26,0.00,,,0.29,0.000000,,2013-02-20 02:02:00,
2013-02-19 21:32:00,38.0,11.0,-100.00,NW,313,5.0,11.0,32,0.00,,,0.29,0.000000,,2013-02-20 02:32:00,
2013-02-19 21:42:00,38.0,11.0,-100.00,NW,313,5.0,11.0,32,0.00,,,0.29,0.000000,,2013-02-20 02:42:00,
2013-02-19 21:52:00,38.0,11.0,-100.00,NW,313,5.0,11.0,32,0.00,,,0.29,0.000000,,2013-02-20 02:52:00,
2013-02-19 22:02:00,38.0,11.0,-100.00,NW,313,5.0,11.0,32,0.00,,,0.29,0.000000,,2013-02-20 03:02:00,
2013-02-19 22:32:00,36.0,11.0,-100.00,NNW,327,4.0,9.0,35,0.00,,,0.29,0.000000,,2013-02-20 03:32:00,
2013-02-19 22:42:00,36.0,11.0,-100.00,NNW,327,4.0,9.0,35,0.00,,,0.29,0.000000,,2013-02-20 03:42:00,
2013-02-19 22:52:00,36.0,11.0,-100.00,NNW,327,4.0,9.0,35,0.00,,,0.29,0.000000,,2013-02-20 03:52:00,
2013-02-19 23:01:00,36.0,11.0,-100.00,NNW,327,4.0,9.0,35,0.00,,,0.29,0.000000,,2013-02-20 04:01:00,
2013-02-19 23:32:00,36.0,13.0,-100.00,NW,315,9.0,15.0,39,0.00,,,0.29,0.000000,,2013-02-20 04:32:00,
2013-02-19 23:42:00,36.0,13.0,-100.00,NW,315,9.0,15.0,39,0.00,,,0.29,0.000000,,2013-02-20 04:42:00,
2013-02-19 23:52:00,36.0,13.0,-100.00,NW,315,9.0,15.0,39,0.00,,,0.29,0.000000,,2013-02-20 04:52:00,